Hourly Weather Mochudi

Today, 6 August, Thursday

Time Temperature Precipitation Wind Pressure Humidity
00:00 +13°C° 0 mm 1 mps 681 mmHg 31%
01:00 +12°C° 0 mm 2 mps 681 mmHg 33%
02:00 +10°C° 0 mm 2 mps 681 mmHg 34%
03:00 +10°C° 0 mm 2 mps 680 mmHg 36%
04:00 +9°C° 0 mm 2 mps 680 mmHg 39%
05:00 +8°C° 0 mm 2 mps 680 mmHg 42%
06:00 +9°C° 0 mm 2 mps 680 mmHg 42%
07:00 +11°C° 0 mm 1 mps 681 mmHg 43%
08:00 +13°C° 0 mm 1 mps 682 mmHg 38%
09:00 +16°C° 0 mm 2 mps 682 mmHg 34%
10:00 +19°C° 0 mm 2 mps 683 mmHg 29%
11:00 +24°C° 0 mm 3 mps 683 mmHg 24%
12:00 +25°C° 0 mm 3 mps 683 mmHg 20%
13:00 +27°C° 0 mm 3 mps 682 mmHg 16%
14:00 +29°C° 0 mm 4 mps 682 mmHg 12%
15:00 +29°C° 0 mm 4 mps 682 mmHg 12%
16:00 +28°C° 0 mm 4 mps 681 mmHg 11%
17:00 +28°C° 0 mm 4 mps 681 mmHg 10%
18:00 +25°C° 0 mm 3 mps 681 mmHg 14%
19:00 +21°C° 0 mm 3 mps 681 mmHg 17%
20:00 +17°C° 0 mm 3 mps 681 mmHg 20%
21:00 +16°C° 0 mm 3 mps 682 mmHg 24%
22:00 +14°C° 0 mm 3 mps 682 mmHg 28%
23:00 +13°C° 0 mm 3 mps 683 mmHg 31%

Tomorrow, 7 August, Friday

Time Temperature Precipitation Wind Pressure Humidity
00:00 +12°C° 0 mm 3 mps 682 mmHg 34%
01:00 +12°C° 0 mm 2 mps 682 mmHg 36%
02:00 +10°C° 0 mm 2 mps 682 mmHg 39%
03:00 +9°C° 0 mm 2 mps 682 mmHg 40%
04:00 +9°C° 0 mm 2 mps 682 mmHg 41%
05:00 +8°C° 0 mm 2 mps 682 mmHg 42%
06:00 +9°C° 0 mm 2 mps 683 mmHg 38%
07:00 +10°C° 0 mm 2 mps 683 mmHg 34%
08:00 +10°C° 0 mm 2 mps 684 mmHg 31%
09:00 +13°C° 0 mm 3 mps 685 mmHg 28%
10:00 +17°C° 0 mm 4 mps 686 mmHg 26%
11:00 +21°C° 0 mm 5 mps 686 mmHg 23%
12:00 +22°C° 0 mm 6 mps 686 mmHg 26%
13:00 +23°C° 0 mm 7 mps 685 mmHg 29%
14:00 +24°C° 0 mm 7 mps 685 mmHg 32%
15:00 +23°C° 0 mm 7 mps 685 mmHg 34%
16:00 +23°C° 0 mm 7 mps 685 mmHg 36%
17:00 +22°C° 0 mm 7 mps 685 mmHg 38%
18:00 +20°C° 0 mm 7 mps 685 mmHg 44%
19:00 +17°C° 0 mm 7 mps 685 mmHg 51%
20:00 +15°C° 0 mm 7 mps 686 mmHg 57%
21:00 +14°C° 0 mm 7 mps 686 mmHg 61%
22:00 +13°C° 0 mm 6 mps 686 mmHg 65%
23:00 +11°C° 0 mm 6 mps 687 mmHg 68%

Day after tomorrow, 8 August, Saturday

Time Temperature Precipitation Wind Pressure Humidity
00:00 +10°C° 0 mm 5 mps 686 mmHg 72%
01:00 +10°C° 0 mm 4 mps 686 mmHg 76%
02:00 +8°C° 0 mm 4 mps 685 mmHg 80%
03:00 +8°C° 0 mm 3 mps 685 mmHg 83%
04:00 +8°C° 0 mm 3 mps 685 mmHg 86%
05:00 +7°C° 0 mm 3 mps 685 mmHg 89%
06:00 +8°C° 0 mm 3 mps 686 mmHg 85%
07:00 +7°C° 0 mm 4 mps 686 mmHg 82%
08:00 +8°C° 0 mm 5 mps 686 mmHg 78%
09:00 +10°C° 0 mm 5 mps 687 mmHg 68%
10:00 +14°C° 0 mm 6 mps 687 mmHg 57%
11:00 +16°C° 0 mm 6 mps 688 mmHg 47%
12:00 +19°C° 0 mm 6 mps 687 mmHg 43%
13:00 +20°C° 0 mm 6 mps 686 mmHg 38%
14:00 +22°C° 0 mm 6 mps 685 mmHg 34%
15:00 +22°C° 0 mm 5 mps 685 mmHg 34%
16:00 +22°C° 0 mm 5 mps 684 mmHg 33%
17:00 +22°C° 0 mm 4 mps 684 mmHg 32%
18:00 +19°C° 0 mm 4 mps 683 mmHg 40%
19:00 +17°C° 0 mm 4 mps 683 mmHg 47%
20:00 +13°C° 0 mm 3 mps 683 mmHg 54%
21:00 +12°C° 0 mm 3 mps 683 mmHg 57%
22:00 +11°C° 0 mm 3 mps 683 mmHg 61%
23:00 +10°C° 0 mm 2 mps 683 mmHg 64%

9 August, Sunday

Time Temperature Precipitation Wind Pressure Humidity
00:00 +10°C° 0 mm 2 mps 683 mmHg 67%
01:00 +9°C° 0 mm 2 mps 682 mmHg 69%
02:00 +9°C° 0 mm 2 mps 682 mmHg 71%
03:00 +8°C° 0 mm 2 mps 681 mmHg 72%
04:00 +8°C° 0 mm 2 mps 681 mmHg 73%
05:00 +7°C° 0 mm 2 mps 681 mmHg 75%
06:00 +8°C° 0 mm 2 mps 681 mmHg 71%
07:00 +9°C° 0 mm 2 mps 681 mmHg 67%
08:00 +11°C° 0 mm 1 mps 682 mmHg 64%
09:00 +15°C° 0 mm 2 mps 682 mmHg 53%
10:00 +18°C° 0 mm 2 mps 683 mmHg 42%
11:00 +23°C° 0 mm 2 mps 683 mmHg 30%
12:00 +26°C° 0 mm 3 mps 683 mmHg 26%
13:00 +28°C° 0 mm 3 mps 682 mmHg 21%
14:00 +30°C° 0 mm 4 mps 682 mmHg 16%
15:00 +30°C° 0 mm 5 mps 681 mmHg 16%
16:00 +30°C° 0 mm 5 mps 681 mmHg 16%
17:00 +29°C° 0 mm 5 mps 681 mmHg 15%
18:00 +26°C° 0 mm 5 mps 681 mmHg 18%
19:00 +22°C° 0 mm 4 mps 681 mmHg 21%
20:00 +19°C° 0 mm 4 mps 681 mmHg 23%
21:00 +18°C° 0 mm 4 mps 681 mmHg 21%
22:00 +17°C° 0 mm 4 mps 681 mmHg 19%
23:00 +14°C° 0 mm 4 mps 682 mmHg 18%

10 August, Monday

Time Temperature Precipitation Wind Pressure Humidity
00:00 +13°C° 0 mm 4 mps 681 mmHg 20%
01:00 +11°C° 0 mm 4 mps 681 mmHg 22%
02:00 +8°C° 0 mm 4 mps 681 mmHg 24%
03:00 +8°C° 0 mm 3 mps 680 mmHg 30%
04:00 +7°C° 0 mm 3 mps 680 mmHg 36%
05:00 +5°C° 0 mm 3 mps 680 mmHg 42%
06:00 +7°C° 0 mm 3 mps 681 mmHg 43%
07:00 +8°C° 0 mm 3 mps 681 mmHg 43%
08:00 +9°C° 0 mm 3 mps 682 mmHg 44%
09:00 +12°C° 0 mm 3 mps 682 mmHg 35%
10:00 +17°C° 0 mm 3 mps 683 mmHg 26%
11:00 +20°C° 0 mm 3 mps 684 mmHg 16%
12:00 +24°C° 0 mm 3 mps 683 mmHg 13%
13:00 +26°C° 0 mm 2 mps 683 mmHg 10%
14:00 +28°C° 0 mm 2 mps 682 mmHg 7%
15:00 +27°C° 0 mm 1 mps 682 mmHg 7%
16:00 +27°C° 0 mm 1 mps 682 mmHg 7%
17:00 +24°C° 0 mm 0 mps 681 mmHg 8%
18:00 +21°C° 0 mm 0 mps 681 mmHg 9%
19:00 +18°C° 0 mm 0 mps 681 mmHg 11%
20:00 +15°C° 0 mm 0 mps 680 mmHg 13%
21:00 +14°C° 0 mm 0 mps 681 mmHg 14%
22:00 +13°C° 0 mm 0 mps 681 mmHg 14%
23:00 +14°C° 0 mm 1 mps 681 mmHg 15%

11 August, Tuesday

Time Temperature Precipitation Wind Pressure Humidity
00:00 +13°C° 0 mm 1 mps 681 mmHg 16%
01:00 +12°C° 0 mm 1 mps 681 mmHg 18%
02:00 +10°C° 0 mm 2 mps 681 mmHg 19%
03:00 +9°C° 0 mm 2 mps 681 mmHg 27%
04:00 +8°C° 0 mm 2 mps 681 mmHg 36%
05:00 +8°C° 0 mm 2 mps 681 mmHg 44%
06:00 +9°C° 0 mm 2 mps 681 mmHg 49%
07:00 +10°C° 0 mm 3 mps 682 mmHg 54%
08:00 +11°C° 0 mm 4 mps 683 mmHg 59%
09:00 +14°C° 0 mm 4 mps 683 mmHg 52%
10:00 +18°C° 0 mm 4 mps 684 mmHg 44%
11:00 +21°C° 0 mm 4 mps 684 mmHg 36%
12:00 +23°C° 0 mm 4 mps 684 mmHg 30%
13:00 +26°C° 0 mm 4 mps 683 mmHg 24%
14:00 +28°C° 0 mm 3 mps 682 mmHg 18%
15:00 +28°C° 0 mm 3 mps 682 mmHg 16%
16:00 +28°C° 0 mm 2 mps 681 mmHg 15%
17:00 +28°C° 0 mm 2 mps 681 mmHg 14%
18:00 +25°C° 0 mm 2 mps 681 mmHg 18%
19:00 +21°C° 0 mm 2 mps 680 mmHg 23%
20:00 +18°C° 0 mm 2 mps 680 mmHg 27%
21:00 +17°C° 0 mm 2 mps 680 mmHg 30%
22:00 +16°C° 0 mm 3 mps 680 mmHg 34%
23:00 +14°C° 0 mm 3 mps 679 mmHg 37%
Show more